KE7JVX-3 Weather Reports


Display with metric or nautical units.
time (UTC)temp
F
wind
direction
speed
MPH
gust
MPH
rain 1hr
in
rain 24hr
in
rain mn
in
humidity
%
barometer
mb
20260901132407 54 352 2.0 6.0 0.00 0.41 0.00 54 1016.7
20260901131407 53 328 3.0 8.0 0.00 0.43 0.00 54 1016.6
20260901130407 53 334 3.0 9.0 0.00 0.46 0.00 54 1016.5
20260901125407 54 313 6.0 9.0 0.00 0.47 0.00 53 1016.5
20260901124407 54 322 4.0 8.0 0.00 0.47 0.00 53 1016.4
20260901123407 54 353 2.0 5.0 0.00 0.47 0.00 54 1016.3
20260901122407 54 21 3.0 7.0 0.00 0.47 0.00 54 1016.3
20260901121407 54 24 3.0 7.0 0.00 0.47 0.00 50 1016.2
20260901120407 55 45 2.0 7.0 0.00 0.47 0.00 49 1016.2
20260901115407 54 19 3.0 7.0 0.00 0.47 0.00 51 1016.2
20260901114407 54 37 3.0 6.0 0.00 0.47 0.00 50 1016.1
20260901113408 54 30 2.0 5.0 0.00 0.48 0.00 52 1016.2
20260901112407 54 8 2.0 5.0 0.00 0.49 0.00 52 1016.2
20260901111408 54 347 2.0 7.0 0.00 0.52 0.00 51 1016.2
20260901110407 54 329 3.0 8.0 0.00 0.54 0.00 51 1016.2
20260901105407 54 341 4.0 10.0 0.00 0.54 0.00 50 1016.2
20260901104408 54 324 5.0 9.0 0.00 0.54 0.00 49 1016.2
20260901103409 54 317 6.0 9.0 0.00 0.54 0.00 47 1016.2
20260901102407 55 320 5.0 10.0 0.00 0.54 0.00 45 1016.3
20260901101407 55 316 5.0 8.0 0.00 0.54 0.00 43 1016.2
20260901100407 55 326 4.0 9.0 0.00 0.54 0.00 42 1016.2
20260901095407 56 327 2.0 7.0 0.00 0.54 0.00 41 1016.3
20260901094407 56 317 1.0 5.0 0.00 0.54 0.00 40 1016.3
20260901093407 56 344 2.0 7.0 0.00 0.54 0.00 40 1016.3
20260901092408 56 329 3.0 8.0 0.00 0.54 0.00 39 1016.3
20260901091407 56 327 4.0 9.0 0.00 0.54 0.00 40 1016.4
20260901090407 56 325 4.0 9.0 0.00 0.54 0.00 41 1016.3
20260901085407 56 326 4.0 8.0 0.00 0.54 0.00 40 1016.4
20260901084407 55 347 1.0 5.0 0.00 0.54 0.00 41 1016.4
20260901083407 55 323 3.0 6.0 0.00 0.54 0.00 43 1016.5
20260901082407 55 316 4.0 7.0 0.00 0.54 0.00 43 1016.6
20260901081407 56 319 3.0 8.0 0.00 0.54 0.00 42 1016.5
20260901080407 56 324 4.0 8.0 0.00 0.54 0.00 39 1016.5
20260901075407 56 324 3.0 7.0 0.00 0.54 0.00 39 1016.6
20260901074407 56 317 4.0 8.0 0.00 0.54 0.00 40 1016.6
20260901073533 56 314 5.0 8.0 0.00 0.54 0.00 42 1016.8
20260901073407 56 314 5.0 8.0 0.00 0.54 0.00 42 1016.8
20260901071408 56 314 5.0 8.0 0.00 0.54 0.00 39 1016.8
20260901070408 56 308 6.0 8.0 0.00 0.54 0.00 41 1016.8
20260901065408 56 308 5.0 8.0 0.00 0.54 0.00 42 1016.8
20260901064408 56 304 6.0 10.0 0.00 0.54 0.00 41 1016.7
20260901063408 57 309 6.0 8.0 0.00 0.54 0.00 40 1016.6
20260901062408 57 299 4.0 7.0 0.00 0.54 0.00 38 1016.7
20260901061408 57 314 3.0 5.0 0.00 0.54 0.00 39 1016.6
20260901060408 57 312 4.0 7.0 0.00 0.54 0.00 38 1016.6
20260901055408 57 297 2.0 6.0 0.00 0.54 0.00 38 1016.6
20260901054409 57 268 4.0 6.0 0.00 0.54 0.00 39 1016.5
20260901053408 56 268 2.0 4.0 0.00 0.54 0.00 40 1016.6
20260901052408 56 262 3.0 4.0 0.00 0.54 0.00 42 1016.7
20260901051408 55 238 3.0 4.0 0.00 0.54 0.00 46 1016.7
20260901050408 55 201 1.0 4.0 0.00 0.54 0.00 47 1016.6
20260901045408 55 201 2.0 4.0 0.00 0.54 0.00 48 1016.7
20260901044409 55 0 0.0 4.0 0.00 0.54 0.00 46 1016.6
20260901043408 54 0 0.0 3.0 0.00 0.54 0.00 48 1016.6
20260901042408 54 201 2.0 5.0 0.00 0.54 0.00 48 1016.5
20260901041408 54 191 4.0 6.0 0.00 0.54 0.00 48 1016.5
20260901040408 54 189 4.0 7.0 0.00 0.54 0.00 48 1016.4
20260901035408 54 211 4.0 6.0 0.00 0.54 0.00 49 1016.4
20260901034408 54 211 4.0 6.0 0.00 0.54 0.00 49 1016.5
20260901033408 54 211 3.0 5.0 0.00 0.54 0.00 49 1016.5
20260901032408 55 211 3.0 5.0 0.00 0.54 0.00 49 1016.3
20260901031408 55 212 4.0 6.0 0.00 0.54 0.00 48 1016.2
20260901030408 55 258 3.0 6.0 0.00 0.54 0.00 49 1016.1
20260901025408 55 0 0.0 3.0 0.00 0.54 0.00 48 1016.0
20260901024408 55 258 1.0 3.0 0.00 0.54 0.00 48 1015.8
20260901023408 55 0 0.0 0.0 0.00 0.54 0.00 46 1015.6
20260901022408 55 0 0.0 2.0 0.00 0.54 0.00 46 1015.5
20260901021408 55 0 0.0 0.0 0.00 0.54 0.00 46 1015.5
20260901020408 55 258 1.0 3.0 0.00 0.54 0.00 46 1015.4
20260901015408 55 258 2.0 4.0 0.00 0.54 0.00 48 1015.4
20260901014408 55 258 1.0 6.0 0.00 0.54 0.00 48 1015.2
20260901013408 56 258 3.0 7.0 0.00 0.54 0.00 46 1015.2
20260901012408 56 258 5.0 7.0 0.00 0.54 0.00 45 1015.3
20260901011408 56 267 4.0 7.0 0.00 0.54 0.00 46 1015.2
20260901010408 56 247 3.0 7.0 0.00 0.54 0.00 49 1015.3
20260901005408 56 245 3.0 8.0 0.00 0.54 0.00 50 1015.3
20260901004408 56 260 6.0 10.0 0.00 0.54 0.00 49 1015.3
20260901003408 57 253 4.0 9.0 0.00 0.54 0.00 46 1015.3
20260901002408 57 266 4.0 9.0 0.00 0.54 0.00 48 1015.3
20260901001409 58 262 5.0 10.0 0.00 0.54 0.00 53 1015.2
20260901000408 59 245 5.0 9.0 0.00 0.54 0.00 48 1015.1
20260831235408 59 210 4.0 8.0 0.00 0.54 0.00 45 1015.0
20260831234408 60 199 3.0 8.0 0.00 0.54 0.00 47 1015.1
20260831233408 59 183 3.0 8.0 0.00 0.54 0.00 47 1015.2
20260831232408 59 181 4.0 9.0 0.00 0.54 0.00 45 1015.1
20260831231410 59 175 4.0 10.0 0.00 0.54 0.00 47 1015.3
20260831230408 58 196 4.0 7.0 0.00 0.54 0.54 55 1015.4
20260831225408 56 228 5.0 10.0 0.00 0.54 0.54 54 1015.5
20260831224408 56 219 4.0 10.0 0.00 0.54 0.54 54 1015.7
20260831223408 56 210 7.0 13.0 0.00 0.54 0.54 55 1015.7
20260831222408 54 222 7.0 11.0 0.00 0.54 0.54 59 1015.7
20260831221408 54 221 6.0 14.0 0.00 0.54 0.54 61 1016.0
20260831220408 54 222 6.0 10.0 0.00 0.54 0.54 62 1016.1
20260831215408 53 187 6.0 12.0 0.00 0.54 0.54 58 1016.3
20260831214408 54 216 8.0 12.0 0.01 0.54 0.54 59 1016.4
20260831213408 54 220 7.0 16.0 0.02 0.54 0.54 57 1016.5
20260831212408 53 219 7.0 16.0 0.02 0.54 0.54 57 1016.6
20260831211410 53 209 7.0 12.0 0.03 0.54 0.54 58 1016.8
20260831210409 53 221 7.0 13.0 0.04 0.54 0.54 56 1017.0
20260831205408 53 215 1.0 11.0 0.05 0.54 0.54 59 1017.2
20260831204409 53 302 1.0 4.0 0.05 0.53 0.53 55 1017.3
20260831203410 52 294 5.0 16.0 0.04 0.52 0.52 57 1017.6
20260831202408 51 303 12.0 17.0 0.04 0.52 0.52 62 1017.7
20260831201414 50 302 11.0 17.0 0.04 0.51 0.51 65 1017.8
20260831200408 50 298 10.0 24.0 0.04 0.50 0.50 66 1017.8
20260831195409 50 297 14.0 25.0 0.05 0.49 0.49 66 1017.7
20260831194410 51 285 18.0 25.0 0.05 0.48 0.48 64 1017.8
20260831193410 50 287 17.0 24.0 0.05 0.48 0.48 69 1017.9
20260831192409 50 271 16.0 21.0 0.05 0.48 0.48 70 1017.9
20260831191408 49 276 14.0 18.0 0.04 0.47 0.47 73 1017.8
20260831190416 50 266 12.0 17.0 0.03 0.46 0.46 72 1017.9
20260831185411 50 250 12.0 18.0 0.01 0.44 0.44 69 1018.0
20260831184408 51 266 10.0 18.0 0.00 0.43 0.43 69 1018.0
20260831183412 52 263 10.0 15.0 0.00 0.43 0.43 66 1017.9
20260831182409 52 262 13.0 16.0 0.00 0.43 0.43 65 1018.0
20260831181410 52 276 10.0 15.0 0.01 0.43 0.43 66 1018.1
20260831180412 51 318 5.0 15.0 0.01 0.43 0.43 68 1018.0
20260831175409 51 311 9.0 14.0 0.01 0.43 0.43 68 1018.0
20260831174411 51 316 6.0 10.0 0.01 0.43 0.43 72 1018.2
20260831173408 51 331 2.0 6.0 0.01 0.43 0.43 75 1018.2
20260831172408 51 321 4.0 9.0 0.01 0.43 0.43 74 1018.1
20260831171411 51 334 3.0 10.0 0.00 0.42 0.42 74 1018.0
20260831170409 53 300 8.0 12.0 0.00 0.42 0.42 67 1017.9
20260831165408 54 324 4.0 9.0 0.00 0.42 0.42 57 1017.8
20260831164409 54 326 3.0 14.0 0.00 0.42 0.42 57 1017.6
20260831163409 55 309 5.0 9.0 0.00 0.42 0.42 56 1017.3
20260831162409 54 291 8.0 14.0 0.01 0.42 0.42 53 1017.2
20260831161408 52 289 5.0 10.0 0.03 0.42 0.42 63 1016.9
20260831160409 51 12 2.0 7.0 0.05 0.42 0.42 65 1016.9
20260831155412 51 13 4.0 10.0 0.07 0.42 0.42 63 1016.8
20260831154408 50 333 5.0 10.0 0.08 0.42 0.42 62 1016.8
20260831153407 50 47 2.0 6.0 0.10 0.42 0.42 66 1017.0
20260831152408 51 280 1.0 7.0 0.12 0.41 0.41 61 1017.3
20260831151408 51 258 2.0 9.0 0.14 0.39 0.39 64 1017.9
20260831150408 50 303 4.0 7.0 0.17 0.37 0.37 66 1017.7
20260831145412 50 256 2.0 8.0 0.18 0.35 0.35 75 1017.9
20260831144407 49 287 6.0 8.0 0.19 0.34 0.34 77 1017.7
20260831143408 50 239 5.0 9.0 0.19 0.32 0.32 77 1017.9
20260831142408 51 224 6.0 10.0 0.17 0.29 0.29 77 1017.7
20260831141409 51 220 7.0 12.0 0.15 0.25 0.25 77 1017.8
20260831140408 51 219 8.0 13.0 0.12 0.20 0.20 77 1017.7
20260831135407 51 218 7.0 12.0 0.10 0.17 0.17 76 1017.5
20260831134408 51 219 6.0 10.0 0.08 0.15 0.15 76 1017.5
20260831133407 51 200 2.0 10.0 0.06 0.13 0.13 76 1017.3